Regional Weather Roundup
Issued by NWS Portland, ME

Home | Current Version | Previous Version | Text Only | Print | Product List | Glossary On
Versions: 1 2 3 4 5 6 7 8 9 10 11 12 13 14 15 16 17 18 19 20 21 22 23 24 25 26 27 28 29 30 31 32 33 34 35 36 37 38 39 40 41 42 43 44 45 46 47 48 49 50
000
ASUS41 KGYX 240010
RWRGYX
WEATHER ROUNDUP FOR MAINE AND NEW HAMPSHIRE
NATIONAL WEATHER SERVICE GRAY ME
800 PM EDT MON OCT 23 2017

MEZ002-005-006-010-012-015-018-020-021-024-026-027-029-240100-
MAINE

CITY           SKY/WX    TMP DP  RH WIND       PRES   REMARKS
PORTLAND       CLOUDY    56  55  97 SE10      30.22F FOG
6HR MIN TEMP:  56; 6HR MAX TEMP:  62;

SANFORD        FOG       55  55 100 CALM      30.21F VSB 1/4
BAR HARBOR     CLOUDY    54  54 100 S7        30.26F FOG
WISCASSET      CLOUDY    56  55  97 CALM      30.24F FOG
6HR MIN TEMP:  56; 6HR MAX TEMP:  60;

ROCKLAND       LGT RAIN  55  54  96 SE5       30.24F VSB 1/2
FRYEBURG       CLOUDY    58  55  90 S3        30.20F
6HR MIN TEMP:  56; 6HR MAX TEMP:  69;

LEWISTONAUBURN CLOUDY    56  54  93 S6        30.21F
AUGUSTA        CLOUDY    55  53  93 S6        30.22F
6HR MIN TEMP:  55; 6HR MAX TEMP:  66;

WATERVILLE     PTCLDY    55  53  93 CALM      30.19F
BANGOR         MOCLDY    56  53  90 S10G18    30.23F
6HR MIN TEMP:  56; 6HR MAX TEMP:  66;

GREENVILLE       N/A     52  47  83 SE5       30.17F
6HR MIN TEMP:  52; 6HR MAX TEMP:  60;

MILLINOCKET    CLEAR     52  50  93 CALM      30.21R
6HR MIN TEMP:  51; 6HR MAX TEMP:  63;

HOULTON        CLEAR     50  46  86 VRB5      30.17F
6HR MIN TEMP:  45; 6HR MAX TEMP:  65;

PRESQUE ISLE   CLEAR     50  46  86 S3        30.16F
6HR MIN TEMP:  50; 6HR MAX TEMP:  61;

FRENCHVILLE    CLEAR     52  46  80 SE10      30.12F
6HR MIN TEMP:  51; 6HR MAX TEMP:  58;

CARIBOU        CLEAR     54  46  74 S7        30.14F
6HR MIN TEMP:  53; 6HR MAX TEMP:  61;

$$

NHZ002-005-008-009-011-012-014-240100-
NEW HAMPSHIRE

CITY           SKY/WX    TMP DP  RH WIND       PRES   REMARKS
PORTSMOUTH     FOG       56  56  99 E5        30.18F VSB 3/4
ROCHESTER      CLOUDY    56  55  97 SE3       30.20S FOG
6HR MIN TEMP:  56; 6HR MAX TEMP:  65;

NASHUA         CLOUDY    62  59  90 SE7       30.18F
MANCHESTER     CLOUDY    60  58  92 E6        30.17S
6HR MIN TEMP:  60; 6HR MAX TEMP:  67;

CONCORD        PTCLDY    58  55  90 SE5       30.18F
6HR MIN TEMP:  58; 6HR MAX TEMP:  66;

LACONIA        CLOUDY    56  54  93 CALM      30.19S
PLYMOUTH       CLOUDY    58  53  85 CALM      30.18S
BERLIN         CLOUDY    51  48  89 CALM      30.16F
6HR MIN TEMP:  51; 6HR MAX TEMP:  72;

WHITEFIELD     CLOUDY    50  47  89 CALM      30.16S
6HR MIN TEMP:  50; 6HR MAX TEMP:  72;

JAFFREY        CLOUDY    62  59  90 S5        30.18F
6HR MIN TEMP:  62; 6HR MAX TEMP:  67;

KEENE          CLOUDY    55  54  96 CALM      30.15F
LEBANON        CLOUDY    57  55  93 CALM      30.14S
6HR MIN TEMP:  55; 6HR MAX TEMP:  67;

MT WASHINGTON  FOG       43  43 100 S40G54      N/A  VSB 1/16
6HR MIN TEMP:  42; 6HR MAX TEMP:  51;

$$

VTZ005-007-008-240100-
VERMONT

CITY           SKY/WX    TMP DP  RH WIND       PRES   REMARKS
ST JOHNSBURY     N/A     57  53  86 MISG      30.13S
BURLINGTON     MOCLDY    65  54  67 CALM      30.04F
$$

MAZ007-012-024-CTZ003-RIZ002-NYZ038-NYZ072-240100-
SOUTHERN NEW ENGLAND AND NY

CITY           SKY/WX    TMP DP  RH WIND       PRES   REMARKS
BOSTON         CLOUDY    57  57 100 CALM      30.19F
WORCESTER      CLOUDY    62  57  83 SE7       30.18F
NANTUCKET      CLEAR     63  63 100 SE14      30.21F
PROVIDENCE     CLOUDY    66  65  96 S9        30.19S FOG
HARTFORD       MOCLDY    64  60  87 SE6       30.14F
ALBANY         CLOUDY    69  57  65 S6        30.07F
NEW YORK CITY  CLOUDY    70  62  76 SE12      30.07F
$$

ANZ081-ANZ082-ANZ150-NHZ014-MEZ023>029-240100-
COASTAL MARINE OBSERVATIONS

STATION/POSITION TIME  TEMP    WIND        PRES    WAVE
                       AIR SEA DIR/SP/G            HT/PER
                 (UTC) (F)     (DEG/KT/KT) (MB)    (FT/S)
MOUNT DESERT ROC 0000   56     140/  7/  8 1024.8F
MATINICUS ROCK   2300   54     110/  5/  5 1024.4S
ISLE OF SHOALS   2300   56      90/ 11/ 12 1022.5F
JEFFREYS LEDGE   2336      58                N/A     2/ 8
GEORGES BANK BUO 2250   62 60              1026.3    2/ 8
$$

.............KEY..............
   WCI - WIND CHILL
   TC  - TEMPERATURE IN CELSIUS
   VSB - VISIBILITY IN MILES
   HX  - HEAT INDEX
   FAIR- INDICATES FEW OR NO CLOUDS BELOW 12,000 FT, WITH NO
         SIGNIFICANT WEATHER AND/OR OBSTRUCTIONS TO VISIBILITY.






USA.gov is the U.S. government's official web portal to all federal, state and local government web resources and services.